Погода в Саме

Погода в Саме : погода сейчас, прогноз погоды и архив. Всё, что Вы хотите узнать о погоде в Саме!

Поиск расширенной информации на нашем сайте:

Другие новости

Новости СМИ2

Главная страница сайта

Новости сайта

03.07.2017

Напоминаем, что на нашем специализированном сайте Метеоцентр.Азия вы можете получить высокодетализированные автоматические прогнозы погоды по пунктам России, СНГ и мира в авиационном формате (включающие направление и скорость ветра, видимость, явления погоды, количество и форму облачности, нижнюю и верхнюю границу облачности).


Погода в Саме - сегодня

Время (UTC), дата Ветер
(°,м/с) 
Видим.   Явления Облачность Т
(°С)
Тd
(°С)
f(%) Тe
(°С)
Pmin
(гПа)
dP
(гПа)
Po
(мм)
O2
(г/м3)
Тmin Tmax R s Состояние
почвы
15 22.09.18 050 (СВ) н/о    ясно 
+18.1 +4.8 41 +19  1019.9  757  285    +22.8       
18 22.09.18 тихо ()   н/о    ясно 
+14.1 +6.2 59 +14  1021.2  1.1  762  291    +22.8       
21 22.09.18 090 (В) н/о    ясно 
+11.4 +5.8 68 +13  1021.6  0.3  758  292           
00 23.09.18 340 (С) н/о    ясно 
+8.8 +5 77 +10  1022  0.3  758  295           
03 23.09.18 360 (С) 20000 м    ясно 
+8.9 +5.1 77 +10  1022.4  0.4  759  295           
06 23.09.18 тихо ()   20000 м    ясно 
+19 +6.7 45 +19  1022.2  0.2  759  285  +7.8         
09 23.09.18 090 (В) 20000 м    ясно 
+22.1 +5.3 33 +22  1020.8  -1.3  758  282           
12 23.09.18 340 (С) 20000 м    ясно 
+23.3 +2.7 26 +23  1019.9  -0.8  757  281           
15 23.09.18 090 (В) н/о    ясно 
+20 +2.7 32 +20  1020.3  0.2  757  284    +23.8       
18 23.09.18 090 (В) н/о    ясно 
+15.8 +3.4 43 +17  1020.6  0.2  758  288    +23.8       
21 23.09.18 090 (В) н/о    ясно 
+13.4 +4 53 +13  1020.1  -0.6  757  290           
00 24.09.18 160 (Ю) н/о    ясно 
+9.8 +2.9 62 +11  1020  -0.2  757  294           
03 24.09.18 180 (Ю) 20000 м    3/0 верхняя 
[Ci sp]
+8.8 +2.7 66 +10  1020.5  0.4  757  295           
06 24.09.18 200 (Ю) 20000 м    3/0 верхняя 
[Ci sp]
+20.8 +3.8 33 +21  1021  0.9  758  283  +8.2         
09 24.09.18 160 (Ю) 20000 м    3/0 верхняя 
[Ci sp]
+24.7 +2.9 24 +25  1019.9  -0.9  757  279           
12 24.09.18 180 (Ю) 20000 м    3/0 верхняя 
[Ci sp]
+25.6 +0.2 19 +26  1018.8  -1  756  279           
15 24.09.18 180 (Ю) н/о    5/0 верхняя 
[Ci sp]
+20.7 -0.2 25 +21  1019.2  0.1  757  283    +26       
18 24.09.18 180 (Ю) н/о    5/0 верхняя 
[Ci sp]
+17.8 +0.4 31 +18  1019  -0.2  756  286    +26       
21 24.09.18 180 (Ю) н/о    5/0 верхняя 
[Ci sp]
+14.9 +0.6 38 +15  1019.4  0.2  757  289           
00 25.09.18 180 (Ю) н/о    6/0 верхняя 
[Ci sp]
+14.3 +4.3 51 +16  1019  757  289           
03 25.09.18 180 (Ю) 20000 м    4/0 средняя 
[Ac lent]
+13 +4.3 55 +13  1018.5  -0.6  756  290           
06 25.09.18 180 (Ю) 20000 м    4/0 средняя 
[Ac lent]
+23 +4.1 29 +23  1018.4  0.3  756  280  +12.9         
09 25.09.18 180 (Ю) 20000 м    4/0 средняя 
[Ac lent]
+27.8 +5.5 24 +28  1017.1  -1.2  755  275           
12 25.09.18 180 (Ю) 20000 м    8/0 средняя 
[Ac lent]
+28.5 +4.8 22 +29  1016.3  -0.8  755  275           
15 25.09.18 160 (Ю) н/о    6/0 средняя 
[Ac cuf]
+23.9 +3.8 27 +24  1016.4  755  279    +28.7       
Время (UTC), дата Ветер
(°,м/с) 
Видим.   Явления Облачность Т
(°С)
Тd
(°С)
f(%) Тe
(°С)
Pmin
(гПа)
dP
(гПа)
Po
(мм)
O2
(г/м3)
Тmin Tmax R s Состояние
почвы

Для получения пояснительной информации подведите курсор к названию столбца.

ПОГОДА в Саме - архив

Всё, что Вы хотите узнать о погоде в Саме - удобно и подробно!

Выберите нужную дату (начиная с 1 января 2015* года) и нажмите кнопку "Найти".
Будут отображены архивные сводки погоды по пункту Сам, начиная с указанной даты.


Отображать данные в формате CSV (для использования в таблицах Excel)


Внимание! Наш архив погоды предназначен исключительно для личного некоммерческого использования в познавательных целях. Если Вам необходимы официальные справки о состоянии погоды (для производственных, юридических, коммерческих и т.п. целей), обращайтесь в органы Росгидромета.

*Примечание: данная дата относится к архиву по метеостанциям СССР (Россия, СНГ, Балтия).
Архив по метеостанциям Зарубежной Европы и Азии (кроме Китая) хранится 10 дней, по другим регионам земного шара (Китай, Африка, Америка, Австралия, Океания) - 1 день.

Сам - район местоположения метеостанции


Название, широта, долгота, высота метеостанции:
Сам 45.4°ш. 56.1°д. 82 м над ур. моря [Казахстан]

Дополнительная информация

В oтличие oт бoльшинства пoгoдных сайтoв мы публикуем пoдрoбную метеoинфoрмацию в детальнoм прoфессиoнальнoм фoрмате.

Характеристики температуры и влажнoсти вoздуха измеряются на высoте 2 м в тени вдали oт зданий и деревьев.
Скoрoсть ветра измеряется на высoте 10 м (на урoвне рoста челoвека скoрoсть ветра ниже в 1.5-2 раза). Если метеoстанция нахoдится в гoрoде или в лесу, тo скoрoсть ветра занижена на 2-4 м/с пo сравнению с oткрытым местoм. Скoрoсть ветра над акватoриями крупных рек и oзёр, а также на вершинах хoлмoв на 2-5 м/с выше, чем в oбычных услoвиях.
Атмoсфернoе давление в разных тoчках местнoсти мoжет значительнo oтличаться oт давления на метеoстанции, в зависимoсти oт услoвий рельефа (при пoдъёме на 10 м давление пoнижается примернo на 1 мм рт.ст.).